AirNav   SIMCOM
 
 354 users online  

97NY Hunter Mountain Airport
Hunter, New York, USA

GOING TO HUNTER?


FAA INFORMATION EFFECTIVE 12 OCTOBER 2017

Location

FAA Identifier: 97NY
Lat/Long: 42-14-03.3130N / 074-14-15.5160W
42-14.055217N / 074-14.258600W
42.2342536 / -74.2376433
(estimated)
Elevation: 2000 ft. / 610 m (estimated)
Variation: 13W (1985)
From city: 1 mile NW of HUNTER, NY
Time zone: UTC -4 (UTC -5 during Standard Time)
Zip code: 12424

Airport Operations

Airport use: Private use. Permission required prior to landing
Activation date: 07/1980
Control tower: no
ARTCC: BOSTON CENTER
FSS: BURLINGTON FLIGHT SERVICE STATION
Attendance: UNATNDD
Wind indicator: no
Segmented circle: no

Airport Communications

UNICOM: 122.8

Nearby radio navigation aids

VOR radial/distance  VOR name  Freq  Var
DNYr095/32.1DELANCEY VOR/DME112.1011W
ALBr225/36.3ALBANY VORTAC115.3013W
IGNr343/38.8KINGSTON VOR/DME117.6012W
PWLr326/39.8PAWLING VOR/DME114.3012W

 
NDB name  Hdg/Dist  Freq  Var  ID
PHILMONT280/22.927213WPFH .--. ..-. ....
GREAT BARRINGTON289/37.239514WGBR --. -... .-.
HUNTER214/39.635614WHEU .... . ..-

Airport Services

Parking: tiedowns

Runway Information

Runway N/S

Dimensions: 2550 x 75 ft. / 777 x 23 m
Surface: gravel, in good condition
RUNWAY N  RUNWAY S
Traffic pattern: leftleft
Obstructions: 25 ft. tree, 50 ft. from runway, 40 ft. left of centerline, 2:1 slope to clear30 ft. trees, 20 ft. from runway, 75 ft. right of centerline

Airport Ownership and Management from official FAA records

Ownership: Privately-owned
Owner: SHEEPSKIN HILLS CORPORATION
ROUTE 296
JEWETT, NY 12442
Phone 518-263-4268
Manager: CHARLES B. SLUTZKY
AIRPORT ROAD ROUTE 296
JEWETT, NY 12442
Phone 518-263-4268

Airport Operational Statistics

Aircraft based on the field: 1
Ultralights: 1
    
Aircraft operations: avg 42/month *
60% local general aviation
40% transient general aviation
* for 12-month period ending 07 June 1990

Additional Remarks

RWY N SLOPES UPHILL.

Instrument Procedures

There are no published instrument procedures at 97NY.

Some nearby airports with instrument procedures:

20N - Kingston-Ulster Airport (19 nm SE)
1B1 - Columbia County Airport (24 nm E)
4B0 - South Albany Airport (27 nm NE)
N89 - Joseph Y Resnick Airport (31 nm S)
KALB - Albany International Airport (36 nm NE)
 
Loc | Ops | Rwys | IFR | FBO | Links
Com | Nav | Svcs | Stats | Notes


 
Area around 97NY (Hunter Mountain Airport)
 
Road maps at: MapQuest Bing Google
 
Aerial photo
WARNING: Photo may not be current or correct
Aerial photo of 97NY (Hunter Mountain Airport)
Taken in May 2009

Do you have a better or more recent aerial photo of Hunter Mountain Airport that you would like to share? If so, please send us your photo.

 
Sectional chart

 
Airport distance calculator
Flying to Hunter Mountain Airport? Find the distance to fly.

From to 97NY

Sunrise and sunset
Times for 24-Oct-2017
 Local
(UTC-4)
 Zulu
(UTC)
Morning civil twilight06:5310:53
Sunrise07:2111:21
Sunset18:0122:01
Evening civil twilight18:3022:30

Current date and time
Zulu (UTC)  24-Oct-2017 07:03:45
Local (UTC-4)  24-Oct-2017 03:03:45
 
METAR
KALB 
37nm NE 
240658Z 15014G21KT 10SM SCT029 SCT070 OVC240 22/16 A2990 RMK AO2 T02170156
TAF
KALB 
37nm NE 
240526Z 2406/2506 15010G18KT P6SM VCSH BKN025 OVC035 WS020/18045KT FM241400 17014G25KT 3SM SHRA BR BKN015 OVC025 FM242100 18014G25KT 1 1/2SM +SHRA BR BKN007 OVC015 PROB30 2421/2424 1SM -TSRA BR BKN005 OVC012CB FM250300 22007KT 3SM -SHRA BR BKN010 OVC015
KPOU 
39nm SE 
240526Z 2406/2506 15010KT P6SM VCSH OVC020 WS020/15040KT FM241200 17012G20KT 3SM SHRA BR BKN015 OVC025 FM242000 17010G20KT 1 1/2SM +SHRA BR BKN007 OVC015 PROB30 2420/2424 1SM -TSRA BR BKN005 BKN012CB FM250100 18008KT 3SM -SHRA BR BKN010 OVC015
KPSF 
44nm E 
240526Z 2406/2506 13012G22KT P6SM VCSH BKN015 OVC025 WS020/18040KT FM240900 16014G22KT 5SM -DZ BR VCSH OVC015 WS020/18040KT FM241400 16015G25KT 3SM SHRA BR OVC015 WS020/18050KT PROB30 2420/2424 1SM -TSRA BR BKN005 BKN012CB FM250300 23010KT 3SM -SHRA BR BKN009 OVC020
KSWF 
45nm S 
240535Z 2406/2512 15014G25KT P6SM VCSH OVC015 FM240800 15015G28KT 5SM -SHRA SCT005 OVC012 WS020/17050KT FM241000 16016G29KT 3SM SHRA SCT005 OVC012 WS020/17050KT FM241300 16015G23KT 2SM +SHRA VCTS SCT005CB OVC012 WS020/17050KT FM250100 18009G16KT 2SM +SHRA VCTS SCT005CB OVC012 WS020/17050KT FM250300 18008KT 2SM +SHRA VCTS SCT005CB OVC012 FM250600 24006KT 5SM SHRA SCT008 BKN020 AMD NOT SKED
NOTAMs
Click for the latest NOTAMs
NOTAMs are issued by the DoD/FAA and will open in a separate window not controlled by AirNav.

 

 
 

Would you like to see your business listed on this page?

 If your business provides an interesting product or service to pilots, flight crews, aircraft, or users of the Hunter Mountain Airport, you should consider listing it here.  To start the listing process, click on the button below
 
Add a business
 

Other Pages about Hunter Mountain Airport

Update a link
 
Copyright © AirNav, LLC. All rights reserved. Privacy Policy  Contact